Location: Boston
(42.3580°N, 71.0600°W)
Time: 03:49:09
(UTC-05:00)

ISS - Visible Passes

Search period start: 04 March 2024 00:00
Search period end: 14 March 2024 01:00
Orbit: 414 x 422 km, 51.6° (Epoch: 04 March)

Date Brightness Start Highest point End Pass type
(mag) Time Alt. Az. Time Alt. Az. Time Alt. Az.
04 Mar -2.8 04:48:30 22° NW 04:50:20 45° NNE 04:53:37 10° ESE visible
05 Mar -2.0 04:02:35 31° NE 04:02:35 31° NE 04:05:17 10° E visible
05 Mar -3.2 05:35:50 10° WNW 05:39:04 42° SW 05:42:16 10° SSE visible
06 Mar -0.2 03:16:45 11° ENE 03:16:45 11° ENE 03:16:52 10° ENE visible
06 Mar -3.9 04:49:42 33° WNW 04:51:04 74° SW 04:54:25 10° SE visible
07 Mar -2.5 04:03:59 41° E 04:03:59 41° E 04:06:21 10° ESE visible
07 Mar -1.9 05:37:16 10° W 05:39:24 16° SW 05:41:31 10° S visible
08 Mar -2.6 04:51:22 26° SW 04:51:27 26° SW 04:54:19 10° SSE visible
09 Mar -1.3 04:05:56 15° SSE 04:05:56 15° SSE 04:06:38 10° SSE visible
12 Mar -1.4 20:54:56 10° SW 20:55:51 17° SW 20:55:51 17° SW visible
13 Mar -3.3 20:06:53 10° SSW 20:10:01 39° SE 20:10:26 38° ESE visible
